Location: Dammartin
(48.9032°N, 1.6195°E)
Time: 22:40:37
(UTC+00:00)

YUBILEINY - Pass Details

Date: 14 December 2023
Orbit: 1479 x 1508 km, 82.5° (Epoch: 04 March)

Event Time Altitude Azimuth Distance (km) Brightness Sun altitude
Rises 21:47:26 0° 340° (NNW) 4,622 ? -55.0°
Reaches altitude 10° 21:52:20 10° 316° (NW) 3,632 ? -55.7°
Maximum altitude 21:55:54 13° 291° (WNW) 3,372 ? -56.1°
Drops below altitude 10° 21:59:28 10° 266° (W) 3,620 ? -56.6°
Sets 22:04:22 0° 242° (WSW) 4,593 ? -57.2°
